Time,TemperatureF,DewpointF,PressureIn,WindDirection,WindDirectionDegrees,WindSpeedMPH,WindSpeedGustMPH,Humidity,HourlyPrecipIn,Conditions,Clouds,dailyrainin,SoftwareType,DateUTC
2013-04-05 00:07:00,39.5,24.0,30.10,South,175,0.0,5.0,55,0.00,,,0.00,weatherlink.com 1.10,2013-04-05 04:07:00,
2013-04-05 00:22:00,39.5,25.0,30.10,South,182,0.0,2.0,56,0.00,,,0.00,weatherlink.com 1.10,2013-04-05 04:22:00,
2013-04-05 00:37:00,39.5,25.0,30.09,South,175,0.0,3.0,57,0.00,,,0.00,weatherlink.com 1.10,2013-04-05 04:37:00,
2013-04-05 00:52:00,39.6,25.0,30.08,South,189,0.0,4.0,57,0.00,,,0.00,weatherlink.com 1.10,2013-04-05 04:52:00,
2013-04-05 01:07:00,39.7,26.0,30.07,South,190,0.0,4.0,58,0.00,,,0.00,weatherlink.com 1.10,2013-04-05 05:07:00,
2013-04-05 01:22:00,39.8,26.0,30.07,SSW,194,0.0,5.0,59,0.00,,,0.00,weatherlink.com 1.10,2013-04-05 05:22:00,
2013-04-05 01:37:00,39.9,27.0,30.05,SSW,202,0.0,5.0,60,0.00,,,0.00,weatherlink.com 1.10,2013-04-05 05:37:00,
2013-04-05 01:52:00,39.9,27.0,30.04,SSW,192,1.0,6.0,60,0.00,,,0.00,weatherlink.com 1.10,2013-04-05 05:52:00,
2013-04-05 02:07:00,39.9,28.0,30.04,South,190,0.0,4.0,62,0.00,,,0.00,weatherlink.com 1.10,2013-04-05 06:07:00,
2013-04-05 02:23:00,39.8,28.0,30.04,SSW,194,3.0,7.0,62,0.00,,,0.00,weatherlink.com 1.10,2013-04-05 06:23:00,
2013-04-05 02:38:00,39.7,28.0,30.02,South,187,0.0,3.0,63,0.00,,,0.00,weatherlink.com 1.10,2013-04-05 06:38:00,
2013-04-05 02:53:00,39.8,28.0,30.01,South,188,1.0,3.0,64,0.00,,,0.00,weatherlink.com 1.10,2013-04-05 06:53:00,
2013-04-05 03:08:00,39.7,29.0,30.01,South,182,0.0,3.0,65,0.00,,,0.00,weatherlink.com 1.10,2013-04-05 07:08:00,
2013-04-05 03:23:00,39.4,29.0,30.00,South,182,0.0,5.0,67,0.00,,,0.00,weatherlink.com 1.10,2013-04-05 07:23:00,
2013-04-05 03:38:00,39.4,30.0,29.99,SSW,193,0.0,2.0,68,0.00,,,0.00,weatherlink.com 1.10,2013-04-05 07:38:00,
2013-04-05 03:53:00,39.3,30.0,29.99,SSE,153,0.0,3.0,69,0.00,,,0.00,weatherlink.com 1.10,2013-04-05 07:53:00,
2013-04-05 04:08:00,39.2,31.0,29.98,South,173,0.0,3.0,72,0.00,,,0.00,weatherlink.com 1.10,2013-04-05 08:08:00,
2013-04-05 04:23:00,38.8,32.0,29.98,SSW,193,0.0,3.0,76,0.00,,,0.00,weatherlink.com 1.10,2013-04-05 08:23:00,
2013-04-05 04:38:00,38.5,32.0,29.98,South,186,0.0,2.0,78,0.00,,,0.00,weatherlink.com 1.10,2013-04-05 08:38:00,
2013-04-05 04:53:00,38.1,33.0,29.98,South,185,0.0,2.0,81,0.00,,,0.00,weatherlink.com 1.10,2013-04-05 08:53:00,
2013-04-05 05:08:00,38.0,33.0,29.98,South,175,0.0,2.0,82,0.00,,,0.00,weatherlink.com 1.10,2013-04-05 09:08:00,
2013-04-05 05:23:00,37.8,33.0,29.98,South,175,0.0,1.0,83,0.00,,,0.00,weatherlink.com 1.10,2013-04-05 09:23:00,
2013-04-05 05:38:00,37.5,33.0,29.98,South,176,0.0,2.0,84,0.00,,,0.00,weatherlink.com 1.10,2013-04-05 09:38:00,
2013-04-05 05:53:00,36.9,33.0,29.98,South,175,0.0,0.0,85,0.00,,,0.00,weatherlink.com 1.10,2013-04-05 09:53:00,
2013-04-05 06:08:00,36.1,32.0,29.98,South,175,0.0,0.0,86,0.00,,,0.00,weatherlink.com 1.10,2013-04-05 10:08:00,
2013-04-05 06:23:00,35.0,32.0,29.97,South,175,0.0,0.0,88,0.00,,,0.00,weatherlink.com 1.10,2013-04-05 10:23:00,
2013-04-05 06:38:00,34.7,32.0,29.97,South,175,0.0,0.0,89,0.00,,,0.00,weatherlink.com 1.10,2013-04-05 10:38:00,
2013-04-05 06:53:00,34.2,32.0,29.97,South,175,0.0,0.0,90,0.00,,,0.00,weatherlink.com 1.10,2013-04-05 10:53:00,
2013-04-05 07:08:00,34.6,32.0,29.97,South,175,0.0,0.0,90,0.00,,,0.00,weatherlink.com 1.10,2013-04-05 11:08:00,
2013-04-05 07:53:00,37.5,33.0,29.96,South,175,0.0,0.0,83,0.00,,,0.00,weatherlink.com 1.10,2013-04-05 11:53:00,
2013-04-05 08:23:00,37.7,33.0,29.96,West,268,3.0,3.0,84,0.00,,,0.00,weatherlink.com 1.10,2013-04-05 12:23:00,
2013-04-05 08:39:00,38.6,33.0,29.95,WNW,284,3.0,5.0,81,0.00,,,0.00,weatherlink.com 1.10,2013-04-05 12:39:00,
2013-04-05 09:09:00,41.1,32.0,29.94,North,355,2.0,5.0,71,0.00,,,0.00,weatherlink.com 1.10,2013-04-05 13:09:00,
2013-04-05 09:24:00,41.7,30.0,29.93,NW,313,4.0,6.0,64,0.00,,,0.00,weatherlink.com 1.10,2013-04-05 13:24:00,
2013-04-05 10:09:00,44.6,28.0,29.92,WNW,286,3.0,10.0,52,0.00,,,0.00,weatherlink.com 1.10,2013-04-05 14:09:00,
2013-04-05 10:24:00,46.4,28.0,29.93,NW,325,4.0,7.0,49,0.00,,,0.00,weatherlink.com 1.10,2013-04-05 14:24:00,
2013-04-05 10:39:00,47.2,27.0,29.93,WNW,302,3.0,9.0,45,0.00,,,0.00,weatherlink.com 1.10,2013-04-05 14:39:00,
2013-04-05 10:54:00,49.0,27.0,29.92,WNW,284,3.0,8.0,42,0.00,,,0.00,weatherlink.com 1.10,2013-04-05 14:54:00,
2013-04-05 11:09:00,50.2,25.0,29.93,WSW,258,7.0,12.0,37,0.00,,,0.00,weatherlink.com 1.10,2013-04-05 15:09:00,
2013-04-05 11:24:00,50.7,24.0,29.92,North,5,0.0,10.0,36,0.00,,,0.00,weatherlink.com 1.10,2013-04-05 15:24:00,
2013-04-05 11:39:00,51.7,23.0,29.92,WNW,286,5.0,10.0,33,0.00,,,0.00,weatherlink.com 1.10,2013-04-05 15:39:00,
2013-04-05 11:54:00,52.8,24.0,29.91,WNW,282,7.0,11.0,32,0.00,,,0.00,weatherlink.com 1.10,2013-04-05 15:54:00,
2013-04-05 12:09:00,53.7,24.0,29.91,NE,51,6.0,13.0,32,0.00,,,0.00,weatherlink.com 1.10,2013-04-05 16:09:00,
2013-04-05 12:24:00,54.4,23.0,29.90,West,273,7.0,13.0,29,0.00,,,0.00,weatherlink.com 1.10,2013-04-05 16:24:00,
2013-04-05 12:40:00,55.3,22.0,29.88,NW,306,3.0,11.0,27,0.00,,,0.00,weatherlink.com 1.10,2013-04-05 16:40:00,
2013-04-05 12:55:00,56.0,23.0,29.88,NNW,330,5.0,9.0,28,0.00,,,0.00,weatherlink.com 1.10,2013-04-05 16:55:00,
2013-04-05 13:10:00,56.6,23.0,29.86,NW,323,6.0,16.0,27,0.00,,,0.00,weatherlink.com 1.10,2013-04-05 17:10:00,
2013-04-05 13:25:00,57.0,23.0,29.86,WNW,300,7.0,18.0,27,0.00,,,0.00,weatherlink.com 1.10,2013-04-05 17:25:00,
2013-04-05 13:40:00,56.7,22.0,29.85,West,270,6.0,14.0,26,0.00,,,0.00,weatherlink.com 1.10,2013-04-05 17:40:00,
2013-04-05 13:55:00,57.5,25.0,29.85,North,360,3.0,13.0,29,0.00,,,0.00,weatherlink.com 1.10,2013-04-05 17:55:00,
2013-04-05 14:10:00,57.6,26.0,29.84,West,261,6.0,14.0,30,0.00,,,0.00,weatherlink.com 1.10,2013-04-05 18:10:00,
2013-04-05 14:25:00,58.0,26.0,29.85,NW,320,2.0,12.0,29,0.00,,,0.00,weatherlink.com 1.10,2013-04-05 18:25:00,
2013-04-05 14:40:00,58.0,25.0,29.84,NNE,23,5.0,10.0,28,0.00,,,0.00,weatherlink.com 1.10,2013-04-05 18:40:00,
2013-04-05 14:55:00,58.9,27.0,29.84,NW,305,5.0,10.0,29,0.00,,,0.00,weatherlink.com 1.10,2013-04-05 18:55:00,
2013-04-05 15:10:00,59.3,26.0,29.84,North,355,5.0,13.0,28,0.00,,,0.00,weatherlink.com 1.10,2013-04-05 19:10:00,
2013-04-05 15:25:00,59.1,27.0,29.83,West,274,5.0,14.0,29,0.00,,,0.00,weatherlink.com 1.10,2013-04-05 19:25:00,
2013-04-05 15:40:00,59.8,26.0,29.83,North,5,3.0,8.0,28,0.00,,,0.00,weatherlink.com 1.10,2013-04-05 19:40:00,
2013-04-05 15:55:00,59.4,26.0,29.83,WNW,295,4.0,13.0,28,0.00,,,0.00,weatherlink.com 1.10,2013-04-05 19:55:00,
2013-04-05 16:10:00,59.5,25.0,29.82,NNW,342,1.0,13.0,27,0.00,,,0.00,weatherlink.com 1.10,2013-04-05 20:10:00,
2013-04-05 16:25:00,59.4,25.0,29.82,NW,304,7.0,14.0,27,0.00,,,0.00,weatherlink.com 1.10,2013-04-05 20:25:00,
2013-04-05 16:40:00,59.7,25.0,29.82,West,263,6.0,13.0,27,0.00,,,0.00,weatherlink.com 1.10,2013-04-05 20:40:00,
2013-04-05 16:55:00,60.4,25.0,29.82,West,259,6.0,11.0,26,0.00,,,0.00,weatherlink.com 1.10,2013-04-05 20:55:00,
2013-04-05 17:10:00,59.8,25.0,29.83,West,279,5.0,16.0,26,0.00,,,0.00,weatherlink.com 1.10,2013-04-05 21:10:00,
2013-04-05 17:25:00,59.9,23.0,29.84,NW,306,3.0,10.0,24,0.00,,,0.00,weatherlink.com 1.10,2013-04-05 21:25:00,
2013-04-05 17:40:00,59.5,22.0,29.85,NW,314,7.0,15.0,24,0.00,,,0.00,weatherlink.com 1.10,2013-04-05 21:40:00,
2013-04-05 17:55:00,59.1,22.0,29.86,WNW,287,3.0,11.0,24,0.00,,,0.00,weatherlink.com 1.10,2013-04-05 21:55:00,
2013-04-05 18:10:00,58.5,21.0,29.87,WSW,245,6.0,16.0,23,0.00,,,0.00,weatherlink.com 1.10,2013-04-05 22:10:00,
2013-04-05 18:25:00,57.8,18.0,29.88,WNW,298,9.0,16.0,21,0.00,,,0.00,weatherlink.com 1.10,2013-04-05 22:25:00,
2013-04-05 18:40:00,57.2,17.0,29.88,WNW,301,8.0,12.0,21,0.00,,,0.00,weatherlink.com 1.10,2013-04-05 22:40:00,
2013-04-05 18:55:00,56.5,19.0,29.89,North,10,2.0,11.0,23,0.00,,,0.00,weatherlink.com 1.10,2013-04-05 22:55:00,
2013-04-05 19:26:00,55.0,17.0,29.90,SW,215,3.0,12.0,22,0.00,,,0.00,weatherlink.com 1.10,2013-04-05 23:26:00,
2013-04-05 19:41:00,53.9,18.0,29.91,West,273,6.0,10.0,24,0.00,,,0.00,weatherlink.com 1.10,2013-04-05 23:41:00,
2013-04-05 19:56:00,53.0,18.0,29.92,West,260,6.0,11.0,25,0.00,,,0.00,weatherlink.com 1.10,2013-04-05 23:56:00,
2013-04-05 20:11:00,52.7,18.0,29.93,West,271,1.0,8.0,25,0.00,,,0.00,weatherlink.com 1.10,2013-04-06 00:11:00,
2013-04-05 20:41:00,51.3,18.0,29.96,WNW,295,4.0,10.0,27,0.00,,,0.00,weatherlink.com 1.10,2013-04-06 00:41:00,
2013-04-05 21:11:00,50.3,18.0,29.98,WNW,297,4.0,13.0,28,0.00,,,0.00,weatherlink.com 1.10,2013-04-06 01:11:00,
2013-04-05 21:26:00,49.2,18.0,29.99,WSW,252,7.0,9.0,29,0.00,,,0.00,weatherlink.com 1.10,2013-04-06 01:26:00,
2013-04-05 22:26:00,46.8,16.0,30.03,SW,228,3.0,11.0,29,0.00,,,0.00,weatherlink.com 1.10,2013-04-06 02:26:00,
2013-04-05 22:41:00,46.4,15.0,30.03,SW,227,3.0,7.0,28,0.00,,,0.00,weatherlink.com 1.10,2013-04-06 02:41:00,
2013-04-05 23:26:00,44.4,16.0,30.05,West,269,2.0,8.0,32,0.00,,,0.00,weatherlink.com 1.10,2013-04-06 03:26:00,
2013-04-05 23:41:00,43.2,17.0,30.06,South,188,0.0,3.0,35,0.00,,,0.00,weatherlink.com 1.10,2013-04-06 03:41:00,
2013-04-05 23:56:00,42.9,19.0,30.07,West,261,0.0,3.0,39,0.00,,,0.00,weatherlink.com 1.10,2013-04-06 03:56:00,